EA3GYL La Torregassa ES current weather conditions

sailwx.info

Wind from 255

Air temperature 21.1° C
Dewpoint 20.3° C

Last reported at 2016-Aug-28 03:46 UTC.
Time now 2016-Aug-28 05:09 UTC

Location: N 41°17' E 001°31'.
View on Google Maps.

See reports from other nearby stations

  
Tides and Currents Weather Stations Pressure Air Temp Water Temp Dewpoint Dewpoint Depression Visibility Wind Speed Wind Dir Waves Ship Positions
date/time (UTC)wind fromknots sea level pressurealtimeterstation pressurevisibilityair tempwater tempwave heightnotes
2016-Aug-28 03:46 255 21.1
2016-Aug-28 03:29 255 21.1
2016-Aug-28 03:12 255 21.1
2016-Aug-28 02:54 255 21.7
2016-Aug-28 02:38 255 21.7
2016-Aug-28 02:21 255 21.7
2016-Aug-28 02:04 255 21.7
2016-Aug-28 01:46 255 21.7
2016-Aug-28 01:30 255 21.7
2016-Aug-28 01:13 255 21.7
2016-Aug-28 00:55 256 21.7
2016-Aug-28 00:38 255 22.2
2016-Aug-28 00:21 256 22.8
2016-Aug-28 00:04 256 22.8
2016-Aug-27 23:47 262 22.8
2016-Aug-27 23:30 271 22.8
2016-Aug-27 23:14 261 22.8
2016-Aug-27 22:56 228 0 gusting 1 22.8
2016-Aug-27 22:39 260 22.8
2016-Aug-27 22:21 255 0 gusting 2 22.8
2016-Aug-27 22:04 259 0 gusting 2 22.8
2016-Aug-27 21:46 249 22.8
2016-Aug-27 21:29 250 22.8
2016-Aug-27 21:13 261 22.8
2016-Aug-27 20:55 254 0 gusting 1 23.3
2016-Aug-27 20:38 267 23.3
2016-Aug-27 20:21 249 23.3
2016-Aug-27 20:05 253 23.3
2016-Aug-27 19:47 213 23.3
2016-Aug-27 19:30 209 23.3
2016-Aug-27 19:14 204 23.9
2016-Aug-27 18:50 205 0 gusting 3 24.4
2016-Aug-27 18:30 184 0 gusting 3 25.0
2016-Aug-27 18:00 174 3 gusting 6 25.6
2016-Aug-27 17:50 174 3 gusting 7 26.1
2016-Aug-27 17:40 186 4 gusting 8 26.1
2016-Aug-27 17:20 199 5 gusting 8 26.7
2016-Aug-27 17:10 184 3 gusting 7 27.2
2016-Aug-27 17:00 162 3 gusting 7 27.2
2016-Aug-27 16:50 151 4 gusting 9 27.2
2016-Aug-27 16:40 149 5 gusting 9 27.2
2016-Aug-27 16:30 153 5 gusting 9 27.2
2016-Aug-27 15:50 153 5 gusting 12 27.8
2016-Aug-27 15:40 167 4 gusting 10 28.3
2016-Aug-27 15:30 143 5 gusting 9 27.8
2016-Aug-27 15:10 144 5 gusting 10 28.3
2016-Aug-27 15:00 167 4 gusting 8 28.3
2016-Aug-27 14:24 112 5 gusting 13 28.3
2016-Aug-27 14:07 154 4 gusting 11 28.9
2016-Aug-27 13:49 126 4 gusting 10 28.3
2016-Aug-27 13:33 109 3 gusting 12 28.3
2016-Aug-27 13:16 173 3 gusting 10 28.9
2016-Aug-27 12:58 188 6 gusting 11 28.3
2016-Aug-27 12:41 126 4 gusting 10 28.3
2016-Aug-27 12:25 121 5 gusting 9 28.9
2016-Aug-27 12:08 137 4 gusting 16 27.8
2016-Aug-27 11:51 169 2 gusting 11 27.8
2016-Aug-27 11:34 154 6 gusting 11 28.3
2016-Aug-27 11:17 086 2 gusting 10 27.8
2016-Aug-27 11:00 162 5 gusting 10 27.2
2016-Aug-27 10:43 194 4 gusting 8 27.8
2016-Aug-27 10:26 063 5 gusting 10 27.2
2016-Aug-27 10:09 075 4 gusting 10 27.2
2016-Aug-27 09:51 113 2 gusting 6 26.7
2016-Aug-27 09:34 074 2 gusting 5 26.7
2016-Aug-27 09:17 107 1 gusting 6 26.1
2016-Aug-27 08:59 128 3 gusting 6 26.1
2016-Aug-27 08:43 204 1 gusting 8 26.1
2016-Aug-27 08:26 175 1 gusting 5 25.6
2016-Aug-27 08:09 139 1 gusting 5 25.6
2016-Aug-27 07:51 147 25.0
2016-Aug-27 07:34 140 23.9
2016-Aug-27 07:18 078 22.8
2016-Aug-27 07:00 280 22.8
2016-Aug-27 06:43 280 22.8
2016-Aug-27 06:26 280 22.2
2016-Aug-27 06:09 280 20.6
2016-Aug-27 05:51 280 19.4
2016-Aug-27 05:35 280 18.9
2016-Aug-27 05:18 280 18.9
2016-Aug-27 05:00 280 18.9
2016-Aug-27 04:43 280 18.3
2016-Aug-27 04:26 280 18.3
2016-Aug-27 04:10 280 18.3
2016-Aug-27 03:52 280 18.3
2016-Aug-27 03:35 280 18.3
2016-Aug-27 03:19 280 19.4
2016-Aug-27 03:02 278 19.4
2016-Aug-27 02:44 260 18.9
2016-Aug-27 02:27 252 19.4
2016-Aug-27 02:10 286 20.0
2016-Aug-27 01:53 292 20.6
2016-Aug-27 01:36 300 20.6
2016-Aug-27 01:19 273 0 gusting 1 20.6
2016-Aug-27 01:03 268 20.6
2016-Aug-27 00:47 287 20.0
2016-Aug-27 00:28 280 20.6
2016-Aug-27 00:11 280 20.6
2016-Aug-26 23:53 296 20.6
2016-Aug-26 23:36 294 21.1
2016-Aug-26 23:20 282 21.1
2016-Aug-26 23:03 295 21.1
2016-Aug-26 22:45 295 21.1
2016-Aug-26 22:28 275 21.1
2016-Aug-26 22:11 221 21.1
2016-Aug-26 21:54 221 21.1
2016-Aug-26 21:37 115 21.1
2016-Aug-26 21:20 115 21.7
2016-Aug-26 21:04 115 21.7
2016-Aug-26 20:46 115 21.7
2016-Aug-26 20:30 115 22.2
2016-Aug-26 20:13 115 22.2
2016-Aug-26 19:55 115 22.8
2016-Aug-26 19:39 116 22.8
2016-Aug-26 19:22 116 22.8
2016-Aug-26 08:59 082 0 gusting 4 25.6
2016-Aug-26 08:42 083 1 gusting 5 25.0
2016-Aug-26 08:26 069 1 gusting 4 25.0
2016-Aug-26 08:09 080 1 gusting 4 24.4
2016-Aug-26 07:51 062 1 gusting 4 23.9
2016-Aug-26 07:34 076 25.0
2016-Aug-26 07:17 081 22.8
2016-Aug-26 06:59 083 22.8
2016-Aug-26 06:42 083 21.7
2016-Aug-26 06:26 083 20.0
2016-Aug-26 06:09 300 21.7
2016-Aug-26 05:51 300 19.4
2016-Aug-26 05:34 300 18.9
2016-Aug-26 05:17 300 18.3